FREGAT DEB, 47336

Orbit data source: Space-Track

FREGAT DEB, 47336 is space debris in LEO originally from a launch on Mon, 18 Jul 2011 UTC launched from the Tyuratam Missile And Space Complex (TTMTR). Debris objects in space refer to the collection of defunct objects orbiting the Earth. Examples of debris include non-operational satellites, rocket bodies, and fragments generated from explosions, collisions, or faulty payload assembly.

Loading next visibility...
Identifier
47336, 2011-037NT
Orbit
LEO
Country
Flag of CISCIS
Related business
Manufacturer
Lavochkin
Mission
Spacecraft
Bus & Motor
Unknown
Mass
Unknown
Launch date (UTC)
2011-07-18 (14 years ago)
Launch vehicle
Unknown
Launch site
Tyuratam Missile And Space Complex (TTMTR)
Object type
Payload
Rocket body
Debris
Shape & HBR
Unknown shape, 0.1 m
Radar Cross Section
Small (<0.1 m²)

Expand to show TLE details & history
Last TLE update: 1 day ago

TLE from 1 day ago
0 FREGAT DEB
1 47336U 11037NT  25339.97931969  .00037693  00000-0  36770-1 0  9992
2 47336  51.6421 231.8396 0862636 200.8745 155.4783 12.74920062214028
Epoch: 2025-12-05T23:30Z
TLE epoch observation values (Epoch: 2025-12-05T23:30:13.221Z)
Latitude
0.00002°
Longitude
164.27089°
Altitude
1,978.905 km
Speed
6.628 km/s
True Right ascension
15h 27m 21s
True Declination
0° 00' 00"
Sunlit
Object was in daylight at epoch
Visualization orbit readout
Latitude
Unknown
Longitude
Unknown
Altitude
Unknown
Speed
Unknown
Apparent Right ascension
Unknown
Apparent Declination
Unknown
Sunlit
N/A
Visualization observer readout
Local Sidereal Time
04:05:18
Azimuth
Unknown
Elevation
Unknown
Doppler factor
Unknown
Orbital elements
Apogee altitude
2,030.142 km
Perigee altitude
694.686 km
Semi-major axis
7,740.551 km
Eccentricity
0.08626
Inclination
51.6421°
RAAN
231.8396°
Arg. of periapsis
200.8745°
True anomaly
159.21072°
Mean anomaly
155.4783°
Eccentric anomaly
157.37934°
Mean motion
3.18702 °/min
Orbital period
112.96 mins
BSTAR
0.03677
Loading maneuver chart data...
Computing Atmospheric mass density...
Loading historical data...
Loading historical data...
Loading historical data...
Loading historical data...
Loading historical data...
Loading historical data...
Loading historical data...

Documentation

Showing up to 5 results
|